Regional Weather Roundup
Issued by NWS

Home | Current Version | Previous Version | Graphics & Text | Print | Product List | Glossary Off
Versions: 1 2 3 4 5 6 7 8 9 10 11 12 13 14 15 16 17 18 19 20 21 22 23 24 25 26 27 28 29 30 31 32 33 34 35 36 37 38 39 40 41 42 43 44 45 46 47 48 49 50

000
ASUS43 KMKX 211500
RWRWI

WISCONSIN REGIONAL WEATHER ROUNDUP
NATIONAL WEATHER SERVICE MILWAUKEE/SULLIVAN WI
900 AM CST TUE FEB 21 2017

NOTE: "FAIR" INDICATES FEW OR NO CLOUDS BELOW 12,000 FEET WITH NO
SIGNIFICANT WEATHER AND/OR OBSTRUCTIONS TO VISIBILITY.

WIZ001-002-006>008-014>016-023>028-211600-
NORTHWEST WISCONSIN

CITY           SKY/WX    TMP DP  RH WIND       PRES   REMARKS
SUPERIOR ARPT  CLOUDY    35  34  95 W9        29.84S WCI  28
ASHLAND        SUNNY     38  35  89 SW14      29.84R WCI  30
HAYWARD        CLOUDY    36  33  89 S7        29.86R WCI  30
SIREN          FOG       35  34  99 S8        29.88R VSB 1/2 WCI  28
CUMBERLAND     FOG       32  32 100 S8        29.88S VSB<1/4 WCI  25
RICE LAKE      FOG       35  34  99 S3        29.90S VSB 1/4
CHETEK         CLOUDY    35  34  98 CALM      29.90S FOG
LADYSMITH      CLOUDY    36  35  97 S7        29.90S FOG     WCI  30
EAU CLAIRE     NOT AVBL
MENOMONIE      FOG       37  36  98 SE7       29.91S VSB 3/4 WCI  31
NEW RICHMOND   FOG       35  35 100 S6        29.90R VSB<1/4 WCI  30
OSCEOLA        NOT AVBL
$$

WIZ003>005-009-010-017-018-211600-
NORTH CENTRAL WISCONSIN

CITY           SKY/WX    TMP DP  RH WIND       PRES   REMARKS
MANITOWISH WTR CLOUDY    34  34 100 SW6       29.83F WCI  29
ARBOR VITAE    CLOUDY    37  35  95 W7        29.84F WCI  31
WOODRUFF       CLOUDY    37  35  95 W7        29.84F WCI  31
RHINELANDER    SUNNY     40  38  93 W8        29.85S WCI  34
EAGLE RIVER    SUNNY     37  36  93 SW8       29.83S WCI  31
LAND O LAKES   SUNNY     40  36  86 W6        29.83S
PHILLIPS       CLOUDY    34  34 100 SW6       29.86S WCI  29
TOMAHAWK       PTSUNNY   36  35  94 CALM      29.87S
MEDFORD        CLOUDY    35  34  96 SW3       29.88S FOG
MERRILL        NOT AVBL
$$

WIZ029-030-035-036-043>047-211600-
CENTRAL WISCONSIN

CITY           SKY/WX    TMP DP  RH WIND       PRES   REMARKS
WAUSAU         PTSUNNY   38  36  92 W7        29.88R WCI  33
MOSINEE        CLOUDY    37  37 100 W6        29.91R WCI  33
MARSHFIELD     CLOUDY    38  36  92 W6        29.90R FOG     WCI  33
STEVENS POINT  CLOUDY    38  37  94 W6        29.92R WCI  34
WAUPACA        MOSUNNY   47  40  78 W8        29.92R
WAUTOMA        MOSUNNY   45  40  82 W12         N/A
WISC RAPIDS    PTSUNNY   42  39  89 W6        29.93R
CAMP DOUGLAS   NOT AVBL
$$

WIZ011>013-019>022-031-037>040-048>050-211600-
NORTHEAST WISCONSIN

CITY           SKY/WX    TMP DP  RH WIND       PRES   REMARKS
ANTIGO         PTSUNNY   38  36  94 W12       29.87R WCI  30
SHAWANO        MOSUNNY   46  41  81 W5        29.89R
OCONTO         SUNNY     47  42  84 W10       29.86S
STURGEON BAY   SUNNY     48  44  86 W14       29.87R
GREEN BAY      SUNNY     48  43  82 W10       29.90R
MANITOWOC      NOT AVBL
APPLETON       MOSUNNY   45  43  93 W16       29.89R
CLINTONVILLE   SUNNY     45  39  81 W7        29.90R
OSHKOSH        MOSUNNY   47  42  83 W7        29.91R
$$

WIZ032>034-041-042-053>061-211600-
SOUTHWEST WISCONSIN

CITY           SKY/WX    TMP DP  RH WIND       PRES   REMARKS
LA CROSSE      MOSUNNY   41  38  89 SE5       29.94S
SPARTA         CLOUDY    40  38  94 CALM      29.95S
VIROQUA        PTSUNNY   39  39 100 CALM      29.93S
BOSCOBEL       FOG       39  38  96 W5        29.95S VSB 1/4
PRAIRIE DU CHI SUNNY     38  37  97 CALM      29.96S FOG
PLATTEVILLE    CLOUDY    40  40 100 NW5       29.94F
$$

WIZ056-057-062-063-064-067-068-211600-
SOUTH CENTRAL WISCONSIN

CITY           SKY/WX    TMP DP  RH WIND       PRES   REMARKS
REEDSBURG      CLOUDY    42  42 100 NW3       29.93S
BARABOO/DELLS  CLOUDY    42  40  93 W3        29.93S
LONE ROCK      FOG       40  39  97 SW5       29.95S VSB 1/4
MINERAL POINT  SUNNY     41  41 100 NW5       29.94S FOG
MADISON        CLOUDY    44  43  96 W6        29.92F FOG
MIDDLETON        N/A     45  45 100 NW5       29.94S
WATERTOWN      PTSUNNY   45  45 100 CALM      29.93R
MONROE         CLOUDY    45  43  93 NW8       29.93S
JANESVILLE     MOSUNNY   48  48 100 NW7       29.94R
$$

WIZ051-052-058>065-066-070>072-211600-
SOUTHEAST WISCONSIN

CITY           SKY/WX    TMP DP  RH WIND       PRES   REMARKS
MILWAUKEE      CLOUDY    55  48  77 W9        29.94R
WAUKESHA       PTSUNNY   48  45  87 W10       29.95R
MILWAUKEE/TIMM MOSUNNY   50  45  81 W12       29.94R
RACINE         CLOUDY    55  50  83 W9        29.94S
KENOSHA        CLOUDY    55  52  89 W9        29.93S
FOND DU LAC    CLOUDY    46  40  79 VRB5      29.93R
SHEBOYGAN      MOSUNNY   48  43  82 W12       29.91R
WEST BEND      CLOUDY    46  45  93 NW13      29.92S
JUNEAU         PTSUNNY   44  42  93 CALM      29.94R
$$

LSZ147-162-211600-
LAKE SUPERIOR

STATION/POSITION TIME  TEMP    WIND        PRES    WAVE
                       AIR SEA DIR/SP/G            HT/PER
                 (UTC) (F)     (DEG/KT/KT) (MB)    (FT/S)
DEVILS ISLAND    1400   35     240/ 21/ 23 1009.9R
PORT WING        1430   35     230/  4/  9 1010.5S
SAXON HARBOR     1440   42     200/ 11/ 12 1009.5F
$$

LMZ867-665-643>646-211600-
LAKE MICHIGAN

STATION/POSITION TIME  TEMP    WIND        PRES    WAVE
                       AIR SEA DIR/SP/G            HT/PER
                 (UTC) (F)     (DEG/KT/KT) (MB)    (FT/S)
CHAMBERS ISLAND  1440   48     220/  6/ 11 1010.5R
NORTHPORT PIER   1440   50     260/  8/ 15 1010.5R
KEWAUNEE LAKESHO 1430   48     290/ 12/ 17 1011.2R
SHEBOYGAN LAKESH 1400   49     280/  8/ 11 1012.7R
PORT WASHINGTON  1440   50     280/  8/ 16 1013.9R
MILWAUKEE LAKESH 1430   53     290/ 11/ 13   N/A
KENOSHA   LAKESH 1400   55     250/  5/ 10 1013.5
$$

TC  - TEMPERATURE IN CELSIUS
VSB - VISIBILITY IN STATUTE MILES
WCI - WIND CHILL INDEX
HX  - HEAT INDEX





USA.gov is the U.S. government's official web portal to all federal, state and local government web resources and services.